Tracking 19286 objects as of 19-Nov-2018
HD Live streaming from Space Station
objects crossing your sky now

OPS 0757 (TACSAT)

Track OPS 0757 (TACSAT) now!
OPS 0757 (TACSAT) is classified as:


NORAD ID: 3691
Int'l Code: 1969-013A
Perigee: 35,663.8 km
Apogee: 35,831.5 km
Inclination: 4.0 °
Period: 1,433.7 minutes
Semi major axis: 42118 km
RCS: 1 m2 (large)
Launch date: February 9, 1969
Source: United States (US)
Launch site: AIR FORCE EASTERN TEST RANGE (AFETR)
aabbcc
Your satellite tracking list
Your tracking list is empty




NASA's NSSDC Master Catalog

Two Line Element Set (TLE):
1  3691U 69013A   18322.80949647 -.00000265 +00000-0 +00000-0 0  9995
2  3691 003.9509 297.6122 0019913 275.7943 063.1993 01.00436338169674
Source of the keplerian elements: AFSPC